CYGFM04

Last updated on Fri Sep 11 2026 00:02:39 GMT+0000 (Coordinated Universal Time)

1 41885U 16078B 26253.62119824 .00032386 00000+0 29915-3 0 9999 2 41885 34.9319 16.1704 0004268 307.3143 52.7195 15.66492503542389
UTC large
Height (km)
Speed (km/s)
/
Latitude / Longitude
Inclination (degrees)
Orbital Period (minutes)
Azimuth
Elevation
Range (km)
Doppler Factor

Next 0 passes for location: London (51.5072 / 0.1276)

No passes found over London.
CYGFM04